Hourly Data Report for September 24, 2017

All times are specified in Local Standard Time (LST). Add 1 hour to adjust for Daylight Saving Time where and when it is observed.

QIKIQTARJUAQ A
NUNAVUT

67°32'48.000" N
64°01'54.000" W
5.50 m
2400577
YVM

Related Data

No related data is available for this station

Download Data

Hourly Data (September 2017)
Hourly Data Report for September 24, 2017
Temp Definition
°C
Dew Point Temp Definition
°C
Rel Hum Definition
%
Wind Dir Definition
10's deg

Wind Spd Definition
km/h
Visibility Definition
km
Stn Press Definition
kPa
Hmdx Definition


Wind Chill Definition


Weather Definition


TIME
00:00 Legend Double Dagger -0.6 -1.5 94 36 22 2.4 100.68   -6 Snow
01:00 Legend Double Dagger 0.0 -1.6 89 36 28 16.1 100.64   -6 Snow
02:00 Legend Double Dagger 0.0 -2.4 84 33 15 14.5 100.65   -4 Rain
03:00 Legend Double Dagger -0.3 -1.7 90 33 22 4.8 100.66   -6 Snow
04:00 Legend Double Dagger 0.2 -3.1 79 34 18 16.1 100.63     LegendNANA
05:00 Legend Double Dagger 0.1 -2.5 83 32 18 16.1 100.60     LegendNANA
06:00 Legend Double Dagger -0.3 -1.0 95 1 30 4.8 100.58   -7 Freezing Rain,Snow
07:00 Legend Double Dagger 0.0 -2.1 86 35 24 12.9 100.55   -6 Rain
08:00 Legend Double Dagger -0.2 -1.5 91 34 22 12.9 100.51   -6 Snow
09:00 Legend Double Dagger 0.3 -3.2 78 34 18 16.1 100.46     LegendNANA
10:00 Legend Double Dagger -0.8 -1.7 94 33 15 2.8 100.44   -5 Snow
11:00 Legend Double Dagger 0.6 -2.4 80 35 28 16.1 100.41     LegendNANA
12:00 Legend Double Dagger 0.0 -2.4 84 33 21 11.3 100.40   -5 Rain
13:00 Legend Double Dagger 0.0 -2.4 84 33 21 16.1 100.39   -5 Rain
14:00 Legend Double Dagger 0.2 -2.9 80 34 18 16.1 100.36     Rain
15:00 Legend Double Dagger 0.2 -2.5 82 32 30 16.1 100.37     LegendNANA
16:00 Legend Double Dagger 0.4 -3.4 76 33 22 16.1 100.40     LegendNANA
17:00 Legend Double Dagger -0.3 -2.0 88 33 28 16.1 100.38   -7 Rain,Snow
18:00 Legend Double Dagger -0.2 -2.7 83 32 24 16.1 100.39   -6 LegendNANA
19:00 Legend Double Dagger -0.3 -2.1 88 32 21 8.1 100.39   -6 Snow
20:00 Legend Double Dagger -0.3 -1.9 89 33 21 11.3 100.39   -6 Snow
21:00 Legend Double Dagger -0.6 -1.8 91 33 17 9.7 100.40   -6 Snow
22:00 Legend Double Dagger -0.5 -2.4 87 32 21 16.1 100.40   -6 Snow
23:00 Legend Double Dagger -0.5 -2.4 87 31 18 16.1 100.43   -6 Snow

Notes on Data Quality.

Legend

  • E = Estimated
  • M = Missing
  • NA = Not Available
  • ‡ = Partner data that is not subject to review by the National Climate Archives
Date modified: